SCP
-0 -0 0 -0 -0 -0 -0 0 0 0 0 0 0 0 0 0 0 0 0 0 0 -0 0 0 0 -0 -0 -0 0 -0 -0 -0 -0 -0 -0 -0 -0 -0 -0 -0 -0 0 -0 -0 -0 -0 0 -0 -0
0 0 -0 -0 -0 0 -0 -0 0 0 0 0 0 0 0 0 0 0 0 0 0 -0 -0 -0 0 -0 0 0 0 -0 -0 -0 -0 -0 -0 -0 -0 -0 -0 -0 -0 -0 -0 -0 -0 -0 -0 -0 -0
-0 0 0 0 0 -0 -0 0 -0 -0 0 0 0 0 0 0 0 0 0 0 0 0 0 -0 -0 -0 -0 0 0 0 0 -0 -0 -0 -0 -0 -0 -0 -0 -0 -0 -0 -0 -0 -0 -0 -0 -0 -0
0 0 0 0 0 0 0 0 0 0 0 0 0 -0 0 0 0 0 0 -0 -0 -0 0 -0 -0 -0 -0 -0 -0 -0 -0 0 0 -0 -0 -0 -0 -0 -0 -0 -0 -0 -0 -0 -0 -0 -0 -0 -0
0 0 0 0 0 0 0 0 -0 0 -0 -0 0 -0 -0 0 -0 0 0 0 -0 -0 0 -0 -0 -0 -0 -0 -0 -0 -0 -0 0 -0 -0 -0 -0 -0 -0 -0 -0 -0 -0 -0 -0 -0 -0 -0 -0
0 0 0 0 0 0 0 0 0 0 0 -0 -0 0 0 0 0 0 0 0 0 -0 -0 -0 -0 -0 -0 -0 -0 -0 0 -0 0 0 -0 -0 -0 -0 -0 0 0 -0 -0 -0 -0 -0 -0 -0 0
0 0 0 0 0 0 0 0 0 0 0 -0 0 -0 0 0 0 0 0 0 0 0 0 -0 0 0 0 -0 -0 -0 -0 -0 0 -0 -0 -0 -0 -0 -0 0 0 0 0 0 0 0 0 0 0
0 0 0 0 0 0 0 0 0 0 0 0 -0 -0 -0 0 -0 0 0 0 0 0 0 0 -0 -0 0 0 0 0 0 0 0 0 0 -0 -0 -0 -0 0 0 0 0 0 0 0 0 0 0
0 0 0 0 0 0 0 0 0 0 0 0 -0 -0 -0 -0 -0 -0 -0 0 0 0 0 0 -0 -0 -0 0 0 0 0 0 0 0 0 0 0 0 -0 0 0 0 0 0 0 0 0 0 0
0 0 0 0 0 0 0 0 0 0 0 0 0 -0 -0 -0 -0 -0 -0 -0 -0 -0 -0 -0 -0 -0 -0 -0 0 0 0 0 0 0 0 0 0 0 0 0 0 0 0 0 0 0 0 0 0
0 0 0 0 0 0 0 0 0 0 0 0 0 0 -0 -0 -0 -0 -0 -0 -0 -0 -0 -0 -0 -0 -0 -0 -0 -0 0 0 0 0 0 0 0 0 0 0 0 0 0 0 0 0 0 0 0
0 0 0 0 0 0 0 0 0 0 0 0 0 0 0 -0 -0 -0 -0 -0 -0 -0 -0 -0 -0 -0 -0 -0 -0 -0 -0 0 0 0 0 0 0 0 0 0 0 0 0 0 0 0 0 0 0
0 0 0 0 0 0 0 0 0 0 0 0 0 0 0 0 0 0 -0 -0 -0 -0 -0 -0 -0 -0 -0 -0 0 -0 -0 0 0 0 0 0 0 0 0 0 0 0 0 0 0 0 0 0 0
0 0 0 0 0 0 0 0 0 0 0 0 0 0 0 0 0 0 0 -0 -0 -0 -0 -0 -0 -0 -0 -0 0 0 0 0 0 0 0 0 0 0 0 0 0 0 0 0 0 0 0 0 0
0 0 0 0 0 0 0 0 0 0 0 0 0 0 0 0 0 0 0 0 -0 -0 -0 -0 -0 -0 -0 -0 0 0 0 0 0 0 0 0 0 0 0 0 0 0 0 0 0 0 0 0 0
0 0 0 0 0 0 0 -0 0 0 0 0 0 0 0 0 0 0 0 0 -0 -0 0 0 0 0 -0 0 0 0 0 0 0 0 0 0 0 0 0 0 0 0 0 0 0 0 0 0 0
0 0 0 0 0 0 0 0 0 0 0 0 0 0 0 0 0 0 0 0 0 0 0 0 0 0 0 0 0 0 0 0 0 0 0 0 0 0 0 0 0 0 0 0 0 0 0 0 0
0 0 0 0 0 0 0 0 0 0 0 0 0 0 0 0 0 0 0 0 0 0 0 0 0 0 0 0 0 0 0 0 0 0 0 0 0 0 0 0 0 0 0 0 0 0 0 0 0
0 0 0 0 0 0 0 0 0 0 0 0 0 0 0 0 0 0 0 0 0 0 0 0 0 0 0 0 0 0 0 0 0 0 0 0 0 0 0 0 0 0 0 0 0 0 0 0 0
0 0 0 0 0 0 0 0 0 0 0 0 0 0 0 0 0 0 0 0 0 0 0 0 0 0 0 0 0 0 0 0 0 0 0 0 0 0 0 0 0 0 0 0 0 0 0 0 0
0 0 0 0 0 0 0 0 0 0 0 0 0 0 0 0 0 0 0 0 0 0 0 0 0 0 0 0 0 0 0 0 0 0 0 0 0 0 0 0 0 0 0 0 0 0 0 0 0
0 0 0 0 0 0 0 0 0 0 0 0 0 0 0 0 0 0 0 0 0 0 0 0 0 0 0 0 0 0 0 0 0 0 0 0 0 0 0 0 0 0 0 0 0 0 0 0 0
0 0 0 0 0 0 0 0 0 0 0 0 0 0 0 0 0 0 0 0 0 0 0 0 0 0 0 0 0 0 0 0 0 0 0 0 0 0 0 0 0 0 0 0 0 0 0 0 0
0 0 0 0 0 0 0 0 -0 0 0 0 0 0 0 0 0 0 0 0 0 0 0 0 0 0 0 0 0 0 0 0 0 0 0 0 0 0 0 0 0 0 0 0 0 0 0 0 0
0 0 0 0 0 0 0 0 0 0 0 0 0 0 0 0 0 0 0 0 0 0 0 0 0 0 0 0 0 0 0 0 0 0 0 0 0 0 0 0 0 0 0 0 0 0 0 0 0
0 0 0 0 0 0 0 0 0 0 0 0 0 0 0 0 0 0 0 0 0 0 0 0 0 0 0 0 0 0 0 0 0 0 0 0 0 0 0 0 0 0 0 0 0 0 0 0 0
0 0 0 0 0 0 0 0 0 0 0 0 0 0 0 0 0 0 0 0 0 0 0 0 0 0 0 0 0 0 0 0 0 0 0 0 0 0 0 0 0 0 0 0 0 0 0 0 0
0 0 0 0 0 0 0 0 0 0 0 0 0 0 0 0 0 0 0 0 0 0 0 0 0 0 0 0 0 0 0 0 0 0 0 0 0 0 0 0 0 0 0 0 0 0 0 0 0
0 0 0 0 0 0 0 0 0 0 0 0 0 0 0 0 0 0 0 0 0 0 0 0 0 0 0 0 0 0 0 0 0 0 0 0 0 0 0 0 0 0 0 0 0 0 0 0 0
0 0 0 0 0 0 0 0 0 0 0 0 0 0 0 0 0 0 0 0 0 0 0 0 0 0 0 0 0 0 0 0 0 0 0 0 0 0 0 0 0 0 0 0 0 0 0 0 0
Wind_Speed_500mb
47 42 15 3 8 8 2 2 1 6 4 3 9 6 7 5 3 2 22 24 28 24 27 23 25 28 24 16 12 10 13 15 19 18 19 21 23 26 24 24 15 29 28 28 26 25 26 21 25
46 34 9 7 8 6 5 4 5 6 12 21 11 7 3 1 3 6 27 25 28 25 25 21 25 30 22 14 9 10 13 15 22 17 21 23 24 27 27 26 24 25 27 25 23 22 25 24 23
37 23 7 8 6 5 4 5 4 1 21 4 5 5 5 4 4 21 17 23 28 28 26 22 23 24 18 15 12 13 15 19 26 16 21 24 22 24 24 25 24 27 25 21 21 20 21 22 21
30 9 10 8 6 4 4 1 7 8 5 4 3 6 5 5 7 26 14 22 24 26 25 24 23 18 16 13 11 10 14 21 25 20 13 20 19 21 23 23 22 23 24 21 17 16 16 19 19
22 8 7 7 1 4 6 2 15 6 2 2 2 2 4 9 12 20 16 23 19 23 23 23 23 21 16 11 10 11 16 19 18 22 18 17 19 19 19 18 19 18 18 17 14 14 12 14 14
9 6 6 6 4 4 2 6 10 6 3 3 2 5 5 13 12 12 19 20 18 19 20 22 24 22 19 14 9 7 13 19 17 17 20 16 17 19 19 17 16 14 14 14 13 12 9 9 10
10 7 4 8 6 3 6 11 6 8 5 4 2 3 2 11 16 13 17 21 19 19 21 20 22 24 24 18 13 9 8 17 24 19 22 19 12 16 19 17 15 14 12 12 11 10 7 5 4
8 10 3 5 7 8 6 9 7 12 7 6 8 2 3 4 17 18 21 23 23 19 19 20 23 24 26 23 18 13 10 14 21 23 20 24 20 14 15 18 16 14 14 13 11 9 8 5 4
10 8 5 8 9 5 1 7 7 9 9 11 8 4 3 2 17 21 22 25 27 26 21 21 22 26 27 26 23 21 18 16 18 22 22 26 20 18 18 20 18 16 16 16 15 14 12 11 10
7 8 20 10 8 5 2 2 2 4 8 10 10 9 7 7 16 19 19 20 22 25 25 23 22 23 28 29 28 26 24 21 20 21 23 23 21 20 21 19 19 19 20 20 20 19 18 15 15
9 12 13 11 11 3 2 5 3 3 4 12 15 10 8 11 17 19 19 18 14 15 21 23 24 24 27 30 31 32 30 29 26 24 24 24 24 23 23 23 22 21 22 23 23 22 21 21 20
5 13 14 8 13 8 4 2 3 12 5 8 8 10 9 10 14 12 16 17 18 20 19 21 24 27 28 30 34 35 37 35 33 30 29 30 30 29 28 27 25 26 25 26 26 26 27 26 26
7 6 15 17 10 11 12 14 12 18 16 18 12 13 12 12 13 15 16 20 21 25 25 27 28 29 30 33 34 38 41 41 38 38 36 35 34 33 33 33 32 30 31 29 30 31 31 31 32
11 17 4 6 15 12 9 14 11 9 27 40 34 26 20 16 13 17 21 19 23 23 24 27 32 33 34 36 37 38 40 41 44 44 43 42 39 37 37 36 37 36 34 33 34 35 36 37 39
8 6 7 13 10 9 7 15 18 48 39 24 41 41 31 26 25 27 28 32 30 29 28 31 34 35 38 40 41 44 42 41 42 44 46 48 49 45 42 40 42 41 39 40 41 42 42 43 43
9 7 5 7 20 14 16 21 7 35 48 55 48 43 42 42 39 39 43 42 41 41 37 35 36 39 41 42 43 47 49 48 45 44 45 47 49 51 50 48 46 43 45 46 48 45 47 48 47
9 7 9 11 24 6 12 14 16 25 45 50 53 60 58 56 49 38 37 39 37 42 43 40 40 41 42 43 45 47 49 53 51 51 50 50 51 50 51 52 51 46 49 51 51 52 52 52 52
14 8 9 10 8 6 8 32 13 7 28 41 49 51 44 44 42 32 42 37 34 29 32 33 33 31 33 43 48 49 50 52 54 56 56 55 55 56 55 55 54 52 54 55 54 57 55 58 56
10 9 11 5 5 8 16 21 37 35 39 45 52 50 47 54 64 57 52 46 45 47 41 36 38 34 35 36 42 49 52 50 53 55 57 58 59 60 61 62 61 61 60 59 56 57 62 63 59
5 8 8 6 7 9 3 20 32 30 30 61 67 67 67 62 57 50 49 47 53 54 51 46 42 44 42 46 49 51 54 54 53 54 55 56 61 64 65 66 67 68 67 65 65 63 66 68 66
26 12 7 3 3 3 10 20 15 18 31 38 55 61 58 61 58 48 43 45 48 52 51 52 50 46 50 56 59 61 62 61 59 60 56 56 57 58 61 64 67 71 73 72 70 70 69 71 73
25 20 11 5 7 9 5 22 15 7 14 11 31 38 45 45 46 53 46 41 39 44 41 41 47 56 60 56 58 63 66 66 61 59 57 57 57 58 58 59 63 67 73 76 75 75 76 74 75
11 18 26 13 10 4 13 7 8 3 10 10 22 35 39 40 39 40 42 37 38 42 47 50 48 48 49 54 55 53 57 60 57 63 65 63 61 61 60 58 59 61 64 66 72 76 80 83 82
13 12 9 6 8 16 20 19 42 21 17 11 19 35 43 33 30 28 32 38 39 45 46 46 47 46 44 47 47 50 52 54 57 58 61 60 59 57 58 57 59 59 62 63 65 69 75 76 83
14 16 7 9 12 21 19 14 49 8 8 8 21 33 29 29 25 27 33 33 37 40 41 40 40 43 46 46 43 48 47 47 51 49 50 50 52 54 53 52 56 58 59 60 61 65 71 73 73
36 27 12 17 14 13 14 22 26 12 44 37 39 34 40 46 50 43 31 25 22 20 17 14 13 19 24 29 32 38 40 39 40 42 45 48 50 53 53 55 58 60 61 59 59 63 68 70 76
22 28 25 8 3 4 11 14 18 14 14 14 36 57 45 21 19 19 28 31 30 25 19 14 9 6 5 6 10 16 21 25 27 29 33 39 42 45 49 54 59 62 64 64 62 65 68 71 74
26 25 18 18 15 19 10 9 23 1 16 16 14 34 26 19 23 33 34 32 28 23 16 10 7 6 5 6 9 12 15 18 20 22 25 30 34 37 41 45 48 53 60 64 65 68 68 70 75
13 20 10 9 13 15 6 16 15 25 17 15 19 36 43 41 45 42 38 32 27 22 17 11 7 4 1 1 2 6 12 18 25 29 32 37 40 43 45 47 51 53 54 56 60 68 71 74 77
49 37 34 17 24 15 3 22 6 16 15 22 25 31 43 48 46 43 38 31 26 22 16 10 4 0 4 8 9 10 10 11 14 20 24 30 36 41 47 51 52 54 56 57 62 64 68 72 76
Wind_Direction_500mb
345 348 359 43 54 65 3 259 196 155 165 201 132 151 177 116 174 212 150 154 156 163 162 160 162 159 152 153 156 158 156 157 147 159 155 161 149 155 154 163 155 122 120 117 109 98 96 95 84
343 348 9 83 80 54 295 265 222 187 141 121 111 113 95 131 134 159 152 155 156 162 160 159 160 161 158 163 175 184 174 151 134 144 153 138 139 137 142 141 139 126 125 123 108 90 88 104 80
342 347 17 82 104 144 213 204 194 126 156 102 123 90 115 124 133 162 161 163 161 164 168 165 165 170 173 170 177 186 172 148 146 160 144 147 143 142 143 141 134 133 133 133 112 97 92 90 81
344 352 54 79 114 211 228 103 151 123 227 248 153 100 120 112 136 167 169 172 168 170 173 171 174 181 187 185 179 177 169 161 162 169 166 147 152 148 148 145 143 137 138 137 125 106 94 91 85
353 12 57 81 233 267 261 190 157 151 276 269 165 141 130 143 130 167 184 176 177 176 181 181 186 190 196 208 200 179 177 181 175 170 171 168 160 152 151 148 144 145 141 139 133 120 112 101 92
38 32 63 154 214 291 321 175 167 167 186 222 214 149 161 165 150 164 164 178 178 183 189 196 197 200 205 214 219 245 194 187 179 181 184 186 179 161 155 158 156 157 146 150 149 143 134 116 107
98 75 219 170 195 180 174 172 203 173 175 219 221 140 147 187 180 172 173 184 187 188 195 207 212 212 213 220 215 229 253 210 193 184 178 201 224 178 168 168 176 170 165 171 174 174 162 151 121
110 96 101 270 201 204 173 187 193 189 195 184 179 191 111 171 188 184 184 188 195 198 200 211 218 225 226 229 222 222 230 227 219 211 187 196 211 213 190 188 192 182 182 193 200 206 209 218 234
132 79 178 243 161 229 81 166 192 181 177 176 196 238 293 331 190 190 191 197 204 209 213 217 222 226 230 236 239 233 222 226 231 228 224 213 219 208 191 196 201 199 201 207 214 222 227 238 256
135 134 205 197 192 179 41 74 225 178 183 206 199 224 256 247 207 207 206 209 216 222 223 225 232 235 231 234 239 242 245 241 234 227 240 231 230 226 210 209 211 214 216 220 223 230 237 243 253
182 190 190 205 162 166 172 127 27 123 255 227 210 204 229 220 214 220 229 232 242 244 238 239 239 238 240 239 239 242 247 249 248 246 233 237 242 242 236 233 231 231 233 235 238 242 247 249 254
187 238 169 195 201 180 193 300 308 201 217 197 200 215 227 233 228 236 241 250 256 259 256 249 246 246 247 241 243 245 245 248 252 256 255 246 239 240 243 246 243 241 244 246 248 250 251 253 256
188 268 208 206 208 246 269 251 242 250 223 219 238 239 240 232 242 248 246 253 262 267 262 259 256 254 253 254 253 248 247 248 249 251 254 257 255 249 246 247 249 248 250 253 254 253 254 256 257
216 214 247 199 224 230 217 257 233 228 241 242 241 238 236 237 245 241 252 265 269 273 270 268 263 261 259 260 259 260 255 250 250 249 252 256 258 259 259 257 256 252 255 258 259 258 257 257 256
144 146 328 249 221 248 172 276 224 234 244 244 233 238 235 243 243 248 257 265 271 272 269 265 267 268 265 267 266 263 264 262 255 255 254 255 256 257 258 260 260 260 260 260 260 261 262 261 262
136 111 153 251 201 229 149 260 279 214 218 231 235 238 249 252 259 261 259 257 262 265 266 271 267 268 270 271 270 269 268 268 267 261 258 257 257 257 261 264 264 262 260 262 263 267 268 267 266
14 180 197 295 211 142 177 272 246 229 219 236 241 246 251 258 258 251 261 248 258 257 260 266 269 268 268 270 270 271 271 268 270 267 263 261 257 258 259 263 265 263 260 260 264 265 268 271 271
178 209 220 207 223 221 215 254 223 213 214 236 247 249 247 246 241 257 257 254 250 250 252 259 264 269 270 265 265 265 266 266 265 264 263 261 260 259 259 261 264 263 262 262 263 267 268 271 274
154 170 189 181 244 183 228 249 256 243 242 248 247 247 249 254 266 267 248 244 248 250 258 261 264 272 275 275 272 270 268 270 269 269 269 266 264 262 260 262 264 264 262 265 266 268 268 269 270
162 190 222 263 231 194 234 257 266 240 230 233 247 256 259 259 262 260 255 251 245 246 254 257 262 268 272 280 279 274 274 272 272 272 271 270 267 265 264 264 266 268 267 266 266 265 268 270 269
222 198 144 168 9 181 299 270 215 260 226 235 240 252 256 257 258 256 253 253 251 252 256 257 261 265 273 275 270 265 263 265 267 269 273 275 274 273 271 269 268 268 269 268 270 269 266 269 274
217 195 148 130 67 243 46 279 210 212 254 227 243 239 246 251 257 255 254 251 255 254 258 262 265 269 268 264 261 260 264 266 270 275 275 277 277 276 274 272 271 270 271 271 271 271 270 268 265
229 151 184 163 182 15 231 280 248 146 267 259 254 254 256 260 254 254 254 250 252 259 260 263 263 263 266 262 259 261 261 265 269 270 271 272 273 276 277 278 276 274 273 276 276 273 272 270 268
138 88 71 102 141 237 231 207 272 239 217 213 221 245 266 253 250 252 254 261 263 265 265 265 266 267 257 256 259 261 264 265 266 268 272 275 278 279 280 280 280 280 279 279 280 280 276 274 272
161 139 155 207 210 238 161 173 247 296 117 189 230 236 250 260 254 281 273 261 267 268 267 265 260 259 259 260 262 261 264 263 263 263 267 270 272 273 274 276 276 276 277 276 276 275 275 274 273
194 183 165 202 207 238 156 221 244 225 228 265 224 248 279 262 259 278 265 251 235 222 218 219 226 240 250 255 257 257 262 266 265 264 264 265 268 271 273 272 272 274 276 275 275 273 272 272 272
186 209 199 115 125 73 208 280 297 225 238 248 220 240 262 270 273 247 196 183 176 172 173 172 174 195 245 286 298 289 282 277 273 273 272 274 276 280 282 282 283 282 280 278 276 273 272 274 274
178 168 190 213 195 221 244 255 236 218 241 237 256 245 248 229 237 170 164 162 158 163 169 176 195 221 250 279 286 288 288 285 283 281 279 280 282 282 282 282 283 283 283 280 276 275 275 274 274
165 192 210 192 203 207 229 242 189 226 222 215 223 232 219 188 166 161 161 158 154 152 150 147 134 115 114 301 308 304 298 294 288 284 281 280 281 281 281 284 286 285 284 281 277 275 276 276 275
199 196 192 199 201 213 234 247 184 228 228 213 213 195 180 172 167 163 161 157 156 156 153 160 166 232 335 338 331 332 326 313 310 306 302 297 292 286 284 283 280 282 284 283 279 275 273 275 276
Wind_Speed_850mb
47 42 15 3 8 8 2 2 1 6 4 3 9 6 7 5 3 2 22 24 28 24 27 23 25 28 24 16 12 10 13 15 19 18 19 21 23 26 24 24 15 29 28 28 26 25 26 21 25
46 34 9 7 8 6 5 4 5 6 12 21 11 7 3 1 3 6 27 25 28 25 25 21 25 30 22 14 9 10 13 15 22 17 21 23 24 27 27 26 24 25 27 25 23 22 25 24 23
37 23 7 8 6 5 4 5 4 1 21 4 5 5 5 4 4 21 17 23 28 28 26 22 23 24 18 15 12 13 15 19 26 16 21 24 22 24 24 25 24 27 25 21 21 20 21 22 21
30 9 10 8 6 4 4 1 7 8 5 4 3 6 5 5 7 26 14 22 24 26 25 24 23 18 16 13 11 10 14 21 25 20 13 20 19 21 23 23 22 23 24 21 17 16 16 19 19
22 8 7 7 1 4 6 2 15 6 2 2 2 2 4 9 12 20 16 23 19 23 23 23 23 21 16 11 10 11 16 19 18 22 18 17 19 19 19 18 19 18 18 17 14 14 12 14 14
9 6 6 6 4 4 2 6 10 6 3 3 2 5 5 13 12 12 19 20 18 19 20 22 24 22 19 14 9 7 13 19 17 17 20 16 17 19 19 17 16 14 14 14 13 12 9 9 10
10 7 4 8 6 3 6 11 6 8 5 4 2 3 2 11 16 13 17 21 19 19 21 20 22 24 24 18 13 9 8 17 24 19 22 19 12 16 19 17 15 14 12 12 11 10 7 5 4
8 10 3 5 7 8 6 9 7 12 7 6 8 2 3 4 17 18 21 23 23 19 19 20 23 24 26 23 18 13 10 14 21 23 20 24 20 14 15 18 16 14 14 13 11 9 8 5 4
10 8 5 8 9 5 1 7 7 9 9 11 8 4 3 2 17 21 22 25 27 26 21 21 22 26 27 26 23 21 18 16 18 22 22 26 20 18 18 20 18 16 16 16 15 14 12 11 10
7 8 20 10 8 5 2 2 2 4 8 10 10 9 7 7 16 19 19 20 22 25 25 23 22 23 28 29 28 26 24 21 20 21 23 23 21 20 21 19 19 19 20 20 20 19 18 15 15
9 12 13 11 11 3 2 5 3 3 4 12 15 10 8 11 17 19 19 18 14 15 21 23 24 24 27 30 31 32 30 29 26 24 24 24 24 23 23 23 22 21 22 23 23 22 21 21 20
5 13 14 8 13 8 4 2 3 12 5 8 8 10 9 10 14 12 16 17 18 20 19 21 24 27 28 30 34 35 37 35 33 30 29 30 30 29 28 27 25 26 25 26 26 26 27 26 26
7 6 15 17 10 11 12 14 12 18 16 18 12 13 12 12 13 15 16 20 21 25 25 27 28 29 30 33 34 38 41 41 38 38 36 35 34 33 33 33 32 30 31 29 30 31 31 31 32
11 17 4 6 15 12 9 14 11 9 27 40 34 26 20 16 13 17 21 19 23 23 24 27 32 33 34 36 37 38 40 41 44 44 43 42 39 37 37 36 37 36 34 33 34 35 36 37 39
8 6 7 13 10 9 7 15 18 48 39 24 41 41 31 26 25 27 28 32 30 29 28 31 34 35 38 40 41 44 42 41 42 44 46 48 49 45 42 40 42 41 39 40 41 42 42 43 43
9 7 5 7 20 14 16 21 7 35 48 55 48 43 42 42 39 39 43 42 41 41 37 35 36 39 41 42 43 47 49 48 45 44 45 47 49 51 50 48 46 43 45 46 48 45 47 48 47
9 7 9 11 24 6 12 14 16 25 45 50 53 60 58 56 49 38 37 39 37 42 43 40 40 41 42 43 45 47 49 53 51 51 50 50 51 50 51 52 51 46 49 51 51 52 52 52 52
14 8 9 10 8 6 8 32 13 7 28 41 49 51 44 44 42 32 42 37 34 29 32 33 33 31 33 43 48 49 50 52 54 56 56 55 55 56 55 55 54 52 54 55 54 57 55 58 56
10 9 11 5 5 8 16 21 37 35 39 45 52 50 47 54 64 57 52 46 45 47 41 36 38 34 35 36 42 49 52 50 53 55 57 58 59 60 61 62 61 61 60 59 56 57 62 63 59
5 8 8 6 7 9 3 20 32 30 30 61 67 67 67 62 57 50 49 47 53 54 51 46 42 44 42 46 49 51 54 54 53 54 55 56 61 64 65 66 67 68 67 65 65 63 66 68 66
26 12 7 3 3 3 10 20 15 18 31 38 55 61 58 61 58 48 43 45 48 52 51 52 50 46 50 56 59 61 62 61 59 60 56 56 57 58 61 64 67 71 73 72 70 70 69 71 73
25 20 11 5 7 9 5 22 15 7 14 11 31 38 45 45 46 53 46 41 39 44 41 41 47 56 60 56 58 63 66 66 61 59 57 57 57 58 58 59 63 67 73 76 75 75 76 74 75
11 18 26 13 10 4 13 7 8 3 10 10 22 35 39 40 39 40 42 37 38 42 47 50 48 48 49 54 55 53 57 60 57 63 65 63 61 61 60 58 59 61 64 66 72 76 80 83 82
13 12 9 6 8 16 20 19 42 21 17 11 19 35 43 33 30 28 32 38 39 45 46 46 47 46 44 47 47 50 52 54 57 58 61 60 59 57 58 57 59 59 62 63 65 69 75 76 83
14 16 7 9 12 21 19 14 49 8 8 8 21 33 29 29 25 27 33 33 37 40 41 40 40 43 46 46 43 48 47 47 51 49 50 50 52 54 53 52 56 58 59 60 61 65 71 73 73
36 27 12 17 14 13 14 22 26 12 44 37 39 34 40 46 50 43 31 25 22 20 17 14 13 19 24 29 32 38 40 39 40 42 45 48 50 53 53 55 58 60 61 59 59 63 68 70 76
22 28 25 8 3 4 11 14 18 14 14 14 36 57 45 21 19 19 28 31 30 25 19 14 9 6 5 6 10 16 21 25 27 29 33 39 42 45 49 54 59 62 64 64 62 65 68 71 74
26 25 18 18 15 19 10 9 23 1 16 16 14 34 26 19 23 33 34 32 28 23 16 10 7 6 5 6 9 12 15 18 20 22 25 30 34 37 41 45 48 53 60 64 65 68 68 70 75
13 20 10 9 13 15 6 16 15 25 17 15 19 36 43 41 45 42 38 32 27 22 17 11 7 4 1 1 2 6 12 18 25 29 32 37 40 43 45 47 51 53 54 56 60 68 71 74 77
49 37 34 17 24 15 3 22 6 16 15 22 25 31 43 48 46 43 38 31 26 22 16 10 4 0 4 8 9 10 10 11 14 20 24 30 36 41 47 51 52 54 56 57 62 64 68 72 76
Wind_Direction_850mb
345 348 359 43 54 65 3 259 196 155 165 201 132 151 177 116 174 212 150 154 156 163 162 160 162 159 152 153 156 158 156 157 147 159 155 161 149 155 154 163 155 122 120 117 109 98 96 95 84
343 348 9 83 80 54 295 265 222 187 141 121 111 113 95 131 134 159 152 155 156 162 160 159 160 161 158 163 175 184 174 151 134 144 153 138 139 137 142 141 139 126 125 123 108 90 88 104 80
342 347 17 82 104 144 213 204 194 126 156 102 123 90 115 124 133 162 161 163 161 164 168 165 165 170 173 170 177 186 172 148 146 160 144 147 143 142 143 141 134 133 133 133 112 97 92 90 81
344 352 54 79 114 211 228 103 151 123 227 248 153 100 120 112 136 167 169 172 168 170 173 171 174 181 187 185 179 177 169 161 162 169 166 147 152 148 148 145 143 137 138 137 125 106 94 91 85
353 12 57 81 233 267 261 190 157 151 276 269 165 141 130 143 130 167 184 176 177 176 181 181 186 190 196 208 200 179 177 181 175 170 171 168 160 152 151 148 144 145 141 139 133 120 112 101 92
38 32 63 154 214 291 321 175 167 167 186 222 214 149 161 165 150 164 164 178 178 183 189 196 197 200 205 214 219 245 194 187 179 181 184 186 179 161 155 158 156 157 146 150 149 143 134 116 107
98 75 219 170 195 180 174 172 203 173 175 219 221 140 147 187 180 172 173 184 187 188 195 207 212 212 213 220 215 229 253 210 193 184 178 201 224 178 168 168 176 170 165 171 174 174 162 151 121
110 96 101 270 201 204 173 187 193 189 195 184 179 191 111 171 188 184 184 188 195 198 200 211 218 225 226 229 222 222 230 227 219 211 187 196 211 213 190 188 192 182 182 193 200 206 209 218 234
132 79 178 243 161 229 81 166 192 181 177 176 196 238 293 331 190 190 191 197 204 209 213 217 222 226 230 236 239 233 222 226 231 228 224 213 219 208 191 196 201 199 201 207 214 222 227 238 256
135 134 205 197 192 179 41 74 225 178 183 206 199 224 256 247 207 207 206 209 216 222 223 225 232 235 231 234 239 242 245 241 234 227 240 231 230 226 210 209 211 214 216 220 223 230 237 243 253
182 190 190 205 162 166 172 127 27 123 255 227 210 204 229 220 214 220 229 232 242 244 238 239 239 238 240 239 239 242 247 249 248 246 233 237 242 242 236 233 231 231 233 235 238 242 247 249 254
187 238 169 195 201 180 193 300 308 201 217 197 200 215 227 233 228 236 241 250 256 259 256 249 246 246 247 241 243 245 245 248 252 256 255 246 239 240 243 246 243 241 244 246 248 250 251 253 256
188 268 208 206 208 246 269 251 242 250 223 219 238 239 240 232 242 248 246 253 262 267 262 259 256 254 253 254 253 248 247 248 249 251 254 257 255 249 246 247 249 248 250 253 254 253 254 256 257
216 214 247 199 224 230 217 257 233 228 241 242 241 238 236 237 245 241 252 265 269 273 270 268 263 261 259 260 259 260 255 250 250 249 252 256 258 259 259 257 256 252 255 258 259 258 257 257 256
144 146 328 249 221 248 172 276 224 234 244 244 233 238 235 243 243 248 257 265 271 272 269 265 267 268 265 267 266 263 264 262 255 255 254 255 256 257 258 260 260 260 260 260 260 261 262 261 262
136 111 153 251 201 229 149 260 279 214 218 231 235 238 249 252 259 261 259 257 262 265 266 271 267 268 270 271 270 269 268 268 267 261 258 257 257 257 261 264 264 262 260 262 263 267 268 267 266
14 180 197 295 211 142 177 272 246 229 219 236 241 246 251 258 258 251 261 248 258 257 260 266 269 268 268 270 270 271 271 268 270 267 263 261 257 258 259 263 265 263 260 260 264 265 268 271 271
178 209 220 207 223 221 215 254 223 213 214 236 247 249 247 246 241 257 257 254 250 250 252 259 264 269 270 265 265 265 266 266 265 264 263 261 260 259 259 261 264 263 262 262 263 267 268 271 274
154 170 189 181 244 183 228 249 256 243 242 248 247 247 249 254 266 267 248 244 248 250 258 261 264 272 275 275 272 270 268 270 269 269 269 266 264 262 260 262 264 264 262 265 266 268 268 269 270
162 190 222 263 231 194 234 257 266 240 230 233 247 256 259 259 262 260 255 251 245 246 254 257 262 268 272 280 279 274 274 272 272 272 271 270 267 265 264 264 266 268 267 266 266 265 268 270 269
222 198 144 168 9 181 299 270 215 260 226 235 240 252 256 257 258 256 253 253 251 252 256 257 261 265 273 275 270 265 263 265 267 269 273 275 274 273 271 269 268 268 269 268 270 269 266 269 274
217 195 148 130 67 243 46 279 210 212 254 227 243 239 246 251 257 255 254 251 255 254 258 262 265 269 268 264 261 260 264 266 270 275 275 277 277 276 274 272 271 270 271 271 271 271 270 268 265
229 151 184 163 182 15 231 280 248 146 267 259 254 254 256 260 254 254 254 250 252 259 260 263 263 263 266 262 259 261 261 265 269 270 271 272 273 276 277 278 276 274 273 276 276 273 272 270 268
138 88 71 102 141 237 231 207 272 239 217 213 221 245 266 253 250 252 254 261 263 265 265 265 266 267 257 256 259 261 264 265 266 268 272 275 278 279 280 280 280 280 279 279 280 280 276 274 272
161 139 155 207 210 238 161 173 247 296 117 189 230 236 250 260 254 281 273 261 267 268 267 265 260 259 259 260 262 261 264 263 263 263 267 270 272 273 274 276 276 276 277 276 276 275 275 274 273
194 183 165 202 207 238 156 221 244 225 228 265 224 248 279 262 259 278 265 251 235 222 218 219 226 240 250 255 257 257 262 266 265 264 264 265 268 271 273 272 272 274 276 275 275 273 272 272 272
186 209 199 115 125 73 208 280 297 225 238 248 220 240 262 270 273 247 196 183 176 172 173 172 174 195 245 286 298 289 282 277 273 273 272 274 276 280 282 282 283 282 280 278 276 273 272 274 274
178 168 190 213 195 221 244 255 236 218 241 237 256 245 248 229 237 170 164 162 158 163 169 176 195 221 250 279 286 288 288 285 283 281 279 280 282 282 282 282 283 283 283 280 276 275 275 274 274
165 192 210 192 203 207 229 242 189 226 222 215 223 232 219 188 166 161 161 158 154 152 150 147 134 115 114 301 308 304 298 294 288 284 281 280 281 281 281 284 286 285 284 281 277 275 276 276 275
199 196 192 199 201 213 234 247 184 228 228 213 213 195 180 172 167 163 161 157 156 156 153 160 166 232 335 338 331 332 326 313 310 306 302 297 292 286 284 283 280 282 284 283 279 275 273 275 276